Station YRSV2 - Taskinas Creek, Chesapeake Bay Reserve, VA Image indicating link to RSS feed of recent meteorological observations for station YRSV2


Conditions at YRSV2 as of
(2:30 pm EDT)
1830 GMT on 05/28/2024:
     

Click on the graph icon in the table below to see a time series plot of the last five days of that observation.

5-day plot - Wind Speed Wind Speed (WSPD): 0.0 kts
5-day plot - Atmospheric Pressure Atmospheric Pressure (PRES):29.85 in
5-day plot - Air Temperature Air Temperature (ATMP): 84.7 °F
5-day plot - Dew Point Dew Point (DEWP): 60.3 °F
5-day plot - Heat Index Heat Index (HEAT): 84.7 °F
5-day plot -  Wind Speed, Wind Gust and Atmospheric Pressure Combined plot of Wind Speed, Gust, and Air Pressure
Previous observations
TIME
(EDT)
5-day plot - Wind Direction
WDIR
 
5-day plot - Wind Speed
WSPD
kts
5-day plot - Wind Gust
GST
kts
5-day plot - Wave Height
WVHT
ft
5-day plot - Dominant Wave Period
DPD
sec
5-day plot - Average Wave Period
APD
sec
5-day plot - Mean Wave Direction
MWD
 
5-day plot - Atmospheric Pressure
PRES
in
5-day plot - Pressure Tendency
PTDY
in
5-day plot - Air Temperature
ATMP
°F
5-day plot - Water Temperature
WTMP
°F
5-day plot - Dew Point
DEWP
°F
5-day plot - Salinity
SAL
psu
5-day plot - Visibility
VIS
nmi
5-day plot - Tide (above MLLW)
TIDE
ft
2024-05-28 02:15 pm- 0.0-----29.88- 82.9- 57.4---
2024-05-28 02:00 pm- 0.0-----29.88+0.00 81.7- 59.4---
2024-05-28 01:45 pm N 1.0-----29.88- 82.8- 60.4---
2024-05-28 01:30 pm- 0.0-----29.88- 82.4- 61.9---
2024-05-28 01:15 pm N 1.0-----29.88- 80.6- 61.2---
2024-05-28 01:00 pm- 0.0-----29.88+0.00 81.0- 61.5---
2024-05-28 12:45 pm N 1.9-----29.88- 79.5- 61.9---
2024-05-28 12:30 pm N 1.9-----29.88- 80.6- 60.1---
2024-05-28 12:15 pm NW 1.9-----29.88- 81.0- 59.4---
2024-05-28 12:00 pm W 1.0-----29.91+0.06 80.8- 59.7---
2024-05-28 11:45 am NW 1.9-----29.91- 80.2- 61.0---
2024-05-28 11:30 am N 1.0-----29.91- 79.2- 62.1---
2024-05-28 11:15 am N 1.9-----29.91- 79.0- 61.9---
2024-05-28 11:00 am N 1.0-----29.88+0.03 77.9- 60.8---
2024-05-28 10:45 am N 1.0-----29.88- 77.7- 61.2---
2024-05-28 10:30 am N 1.0-----29.88- 77.4- 61.7---
2024-05-28 10:15 am N 1.0-----29.88- 77.7- 62.6---
2024-05-28 10:00 am- 0.0-----29.88+0.06 77.2- 63.0---
2024-05-28 09:45 amNNW 1.0-----29.88- 77.0- 63.7---
2024-05-28 09:30 am- 0.0-----29.85- 76.6- 63.9---
2024-05-28 09:15 am NW 1.9-----29.85- 75.9- 63.5---
2024-05-28 09:00 am- 0.0-----29.85+0.03 75.4- 64.4---
2024-05-28 08:45 amWNW 1.9-----29.85- 74.1- 63.5---
2024-05-28 08:30 amWNW 1.9-----29.85- 73.4- 64.0---
2024-05-28 08:15 am W 1.0-----29.85- 72.3- 64.6---
2024-05-28 08:00 am W 1.0-----29.85+0.06 71.4- 65.1---
2024-05-28 07:45 amWSW 1.0-----29.85- 70.5- 65.5---
2024-05-28 07:30 am- 0.0-----29.83- 69.4- 65.8---
2024-05-28 07:15 am- 0.0-----29.83- 68.2- 65.5---
2024-05-28 07:00 am- 0.0-----29.83+0.03 67.1- 65.3---
2024-05-28 06:45 am- 0.0-----29.83- 66.6- 64.8---
2024-05-28 06:30 am- 0.0-----29.83- 66.4- 64.9---
2024-05-28 06:15 am- 0.0-----29.83- 66.4- 64.9---
2024-05-28 06:00 am- 0.0-----29.83+0.03 66.6- 65.1---
2024-05-28 05:45 am- 0.0-----29.83- 66.7- 65.3---
2024-05-28 05:30 am- 0.0-----29.83- 66.7- 65.3---
2024-05-28 05:15 am- 0.0-----29.83- 66.9- 65.5---
2024-05-28 05:00 am- 0.0-----29.80+0.00 66.9- 65.8---
2024-05-28 04:45 am- 0.0-----29.80- 67.3- 65.8---
2024-05-28 04:30 am- 0.0-----29.80- 67.3- 66.2---
2024-05-28 04:15 am- 0.0-----29.80- 67.5- 66.4---
2024-05-28 04:00 am- 0.0-----29.80+0.00 67.5- 66.4---
2024-05-28 03:45 am- 0.0-----29.80- 67.5- 66.4---
2024-05-28 03:30 am- 0.0-----29.80- 67.8- 66.7---
2024-05-28 03:15 am- 0.0-----29.80- 68.2- 66.7---
2024-05-28 03:00 am- 0.0-----29.80+0.00 68.5- 67.1---
2024-05-28 02:45 am- 0.0-----29.80- 68.9- 67.5---
2024-05-28 02:30 am- 0.0-----29.80- 68.7- 67.3---
2024-05-28 02:15 am- 0.0-----29.80- 68.7- 67.6---
2024-05-28 02:00 am- 0.0-----29.80+0.03 68.5- 67.5---
2024-05-28 01:45 am- 0.0-----29.80- 68.5- 67.5---
2024-05-28 01:30 am- 0.0-----29.80- 68.7- 67.6---
2024-05-28 01:15 am- 0.0-----29.80- 69.1- 68.0---
2024-05-28 01:00 am- 0.0-----29.80+0.03 69.3- 67.8---
2024-05-28 12:45 am- 0.0-----29.80- 69.4- 68.0---
2024-05-28 12:30 am- 0.0-----29.80- 69.4- 68.0---
2024-05-28 12:15 am- 0.0-----29.80- 69.4- 68.0---
2024-05-28 12:00 am- 0.0-----29.80+0.03 69.4- 68.0---
2024-05-27 11:45 pm- 0.0-----29.80- 69.6- 68.2---
2024-05-27 11:30 pm- 0.0-----29.80- 69.6- 67.8---
2024-05-27 11:15 pm- 0.0-----29.77- 69.8- 68.0---
2024-05-27 11:00 pm- 0.0-----29.77+0.03 69.6- 67.8---
2024-05-27 10:45 pm- 0.0-----29.77- 69.6- 67.8---
2024-05-27 10:30 pm- 0.0-----29.77- 69.6- 67.8---
2024-05-27 10:15 pm- 0.0-----29.77- 69.4- 68.0---
2024-05-27 10:00 pm- 0.0-----29.77+0.03 69.4- 68.0---
2024-05-27 09:45 pm- 0.0-----29.77- 69.3- 67.8---
2024-05-27 09:30 pm- 0.0-----29.77- 69.3- 68.2---
2024-05-27 09:15 pm- 0.0-----29.77- 69.1- 68.0---
2024-05-27 09:00 pm- 0.0-----29.77+0.06 69.3- 68.2---
2024-05-27 08:45 pm- 0.0-----29.74- 69.4- 68.4---
2024-05-27 08:30 pm- 0.0-----29.74- 69.8- 68.7---
2024-05-27 08:15 pm- 0.0-----29.74- 70.2- 69.1---
2024-05-27 08:00 pm- 0.0-----29.74+0.00 70.7- 69.4---
2024-05-27 07:45 pm- 0.0-----29.74- 71.6- 70.2---
2024-05-27 07:30 pm- 0.0-----29.74- 72.5- 71.1---
2024-05-27 07:15 pm- 0.0-----29.74- 72.5- 71.1---
2024-05-27 07:00 pm- 0.0-----29.74+0.00 72.3- 70.9---
2024-05-27 06:45 pm- 0.0-----29.74- 72.1- 70.9---
2024-05-27 06:30 pm- 0.0-----29.71- 71.2- 70.0---
2024-05-27 06:15 pm- 0.0-----29.71-------
2024-05-27 06:00 pm S 1.0-----29.71-0.06------
2024-05-27 05:45 pm SW 4.1-----29.74-------
2024-05-27 05:30 pm SW 1.0-----29.74- 79.7- 74.5---
2024-05-27 05:15 pm- 0.0-----29.74- 80.2- 74.1---
2024-05-27 05:00 pmSSW 1.0-----29.74-0.06 80.6- 73.9---
2024-05-27 04:45 pm- 0.0-----29.74- 81.5- 73.8---
2024-05-27 04:30 pmSSE 1.0-----29.74- 82.4- 73.9---
2024-05-27 04:15 pm SE 1.9-----29.74- 82.6- 73.8---
2024-05-27 04:00 pmSSE 1.9-----29.74-0.09 81.7- 73.6---
2024-05-27 03:45 pm SE 1.9-----29.77- 80.1- 72.7---
2024-05-27 03:30 pmSSE 1.9-----29.77- 79.7- 72.9---
2024-05-27 03:15 pm S 1.0-----29.77- 78.4- 72.3---
2024-05-27 03:00 pm- 0.0-----29.77-0.06 77.4- 72.0---